Elmira, NY

12:13 PM EST on December 10, 2019 (GMT -0500)
Elmira-Corning Regional

Weather History for KELM - October, 2019

Change the Weather History Date:

Monday, October 14, 2019

  Actual Average Record
Temperature  
Mean Temperature 46 °F -  
Max Temperature 62 °F 62 °F 82 °F (1954)
Min Temperature 33 °F 38 °F 24 °F (1953)
Degree Days  
Heating Degree Days 18    
Moisture  
Dew Point 39 °F    
Average Humidity 77    
Maximum Humidity 97    
Minimum Humidity 47    
Precipitation  
Precipitation 0.00 in - - ()
Sea Level Pressure  
Sea Level Pressure 29.99 in    
Wind  
Wind Speed 3 mph (WNW)    
Max Wind Speed 13 mph    
Max Gust Speed 22 mph    
Visibility 10 miles    
Events      
Averages and records for this station are not official NWS values.
T = Trace of Precipitation, MM = Missing Value Source: NWS Daily Summary

Daily Weather History Graph

Daily Weather History Graph

Search for Another Location

Airport or City:

Astronomy

Oct. 14, 2019 Rise Set
Actual Time 7:18 AM EDT 6:27 PM EDT
Civil Twilight 6:50 AM EDT 6:55 PM EDT
Nautical Twilight 6:18 AM EDT 7:28 PM EDT
Astronomical Twilight 5:45 AM EDT 8:00 PM EDT
Moon 7:16 PM EDT (10/14) 7:48 AM EDT (10/14)
Length of Visible Light 12h 05m
Length of Day
11h 08m
Waxing Gibbous, 99% of the Moon is Illuminated
Oct 14
Waxing Gibbous
Oct 21
Last Quarter
Oct 27
New
Nov 4
First Quarter
Nov 12
Full

Hourly Weather History & Observations

Time (EDT) Temp. Windchill Dew Point Humidity Pressure Visibility Wind Dir Wind Speed Gust Speed Precip Events Conditions
12:53 AM 37.0 °F - 35.1 °F 93% 29.96 in 10.0 mi Calm Calm - N/A   Clear
1:53 AM 37.0 °F - 35.1 °F 93% 29.95 in 10.0 mi Calm Calm - N/A   Clear
2:53 AM 35.1 °F - 33.1 °F 92% 29.93 in 10.0 mi Calm Calm - N/A   Clear
3:53 AM 36.0 °F 33.3 °F 35.1 °F 97% 29.93 in 10.0 mi SSE 3.5 mph - N/A   Clear
4:53 AM 33.1 °F - 32.0 °F 96% 29.92 in 10.0 mi Calm Calm - N/A   Clear
5:53 AM 33.1 °F - 32.0 °F 96% 29.92 in 10.0 mi Calm Calm - N/A   Clear
6:53 AM 35.1 °F - 32.0 °F 89% 29.94 in 10.0 mi Calm Calm - N/A   Clear
7:53 AM 36.0 °F - 34.0 °F 93% 29.96 in 10.0 mi Calm Calm - N/A   Clear
8:53 AM 41.0 °F - 39.9 °F 96% 29.96 in 10.0 mi Calm Calm - N/A   Mostly Cloudy
9:53 AM 48.9 °F - 44.1 °F 83% 29.97 in 10.0 mi Calm Calm - N/A   Mostly Cloudy
10:53 AM 55.9 °F - 44.1 °F 64% 29.97 in 10.0 mi West 5.8 mph - N/A   Overcast
11:53 AM 59.0 °F - 42.1 °F 53% 29.96 in 10.0 mi WSW 11.5 mph - N/A   Overcast
12:53 PM 59.0 °F - 42.1 °F 53% 29.96 in 10.0 mi West 8.1 mph - N/A   Overcast
1:53 PM 59.0 °F - 43.0 °F 55% 29.96 in 10.0 mi WNW 5.8 mph - N/A   Overcast
2:53 PM 60.1 °F - 39.9 °F 47% 29.96 in 10.0 mi West 12.7 mph 19.6 mph N/A   Mostly Cloudy
3:53 PM 57.9 °F - 41.0 °F 53% 29.96 in 10.0 mi NNW 9.2 mph - N/A   Overcast
4:53 PM 55.0 °F - 42.1 °F 62% 30.00 in 10.0 mi WNW 10.4 mph 21.9 mph N/A   Scattered Clouds
5:53 PM 53.1 °F - 42.1 °F 66% 30.03 in 10.0 mi NW 4.6 mph - N/A   Mostly Cloudy
6:53 PM 51.1 °F - 39.9 °F 66% 30.05 in 10.0 mi West 6.9 mph - N/A   Mostly Cloudy
7:53 PM 48.9 °F - 39.9 °F 71% 30.09 in 10.0 mi North 6.9 mph - N/A   Mostly Cloudy
8:53 PM 46.9 °F - 39.0 °F 74% 30.10 in 10.0 mi Calm Calm - N/A   Overcast
9:53 PM 45.0 °F - 39.9 °F 82% 30.11 in 10.0 mi Calm Calm - N/A   Overcast
10:53 PM 45.0 °F 43.5 °F 41.0 °F 86% 30.11 in 10.0 mi West 3.5 mph - N/A   Overcast
11:53 PM 45.0 °F - 39.9 °F 82% 30.11 in 10.0 mi Calm Calm - N/A   Overcast